This demonstration page uses our WeatherBlox Daily Observations layout. Learn more.

Hourly Observations for November 10, 2018

Temp ( °F °C ) Dew Point ( °F °C ) Humidity (%) Winds ( mph kmh ) Pressure ( in mb ) Visibility ( mi km ) Precip ( " mm )
12:15 am 00:15 Clear 12 -11.2 7 -14.1 79 79 S 10 17 30.53 1034 10 16.09344 0 0
12:35 am 00:35 Clear 11 -11.5 6 -14.2 81 81 S 10 17 30.53 1034 10 16.09344 0 0
12:55 am 00:55 Clear 12 -11.3 7 -14 81 81 S 13 20 30.5 1033 10 16.09344 0 0
1:15 am 01:15 Clear 12 -11.3 7 -13.9 81 81 S 10 17 30.5 1033 10 16.09344 0 0
1:35 am 01:35 Clear 12 -11.2 8 -13.6 83 83 S 9 15 30.5 1033 10 16.09344 0 0
1:55 am 01:55 Clear 12 -11 8 -13.4 83 83 S 12 19 30.48 1032 10 16.09344 0 0
2:15 am 02:15 Clear 13 -10.7 8 -13.2 82 82 S 13 20 30.48 1032 10 16.09344 0 0
2:35 am 02:35 Clear 12 -11 8 -13.1 85 85 S 12 19 30.48 1032 10 16.09344 0 0
2:55 am 02:55 Clear 13 -10.7 9 -12.6 86 86 S 12 19 30.45 1031 10 16.09344 0 0
3:15 am 03:15 Clear 13 -10.7 10 -12.5 87 87 SSE 10 17 30.45 1031 10 16.09344 0 0
3:35 am 03:35 Clear 13 -10.6 10 -12.5 86 86 SSE 9 15 30.45 1031 10 16.09344 0 0
3:55 am 03:55 Clear 13 -10.7 9 -12.6 86 86 S 9 15 30.42 1030 10 16.09344 0 0
4:15 am 04:15 Clear 13 -10.3 10 -12 88 88 S 14 22 30.39 1029 10 16.09344 0 0
4:35 am 04:35 Clear 14 -10 11 -11.8 87 87 S 16 26 30.36 1028 10 16.09344 0 0
4:55 am 04:55 Clear 14 -10 10 -12 85 85 S 15 24 30.36 1028 10 16.09344 0 0
5:15 am 05:15 Clear 13 -10.3 10 -12.2 86 86 S 14 22 30.33 1027 10 16.09344 0 0
5:35 am 05:35 Clear 13 -10.5 10 -12.3 87 87 S 13 20 30.33 1027 10 16.09344 0 0
5:55 am 05:55 Clear 13 -10.6 10 -12.3 87 87 S 10 17 30.33 1027 10 16.09344 0 0
6:15 am 06:15 Clear 13 -10.5 10 -12 89 89 S 12 19 30.33 1027 10 16.09344 0 0
6:35 am 06:35 Clear 13 -10.5 10 -12 89 89 SSE 9 15 30.33 1027 10 16.09344 0 0
6:55 am 06:55 Clear 13 -10.5 11 -11.9 90 90 S 13 20 30.33 1027 10 16.09344 0 0
7:15 am 07:15 Clear 14 -10.1 11 -11.6 89 89 S 13 20 30.33 1027 10 16.09344 0 0
7:35 am 07:35 Sunny 15 -9.6 12 -11.2 88 88 S 13 20 30.33 1027 10 16.09344 0 0
7:55 am 07:55 Mostly Cloudy 15 -9.5 12 -11 89 89 S 10 17 30.33 1027 10 16.09344 0 0
8:15 am 08:15 Cloudy 16 -9 13 -10.6 88 88 S 15 24 30.3 1026 10 16.09344 0 0
8:35 am 08:35 Cloudy 17 -8.6 14 -10.2 88 88 S 14 22 30.3 1026 10 16.09344 0 0
8:55 am 08:55 Cloudy 17 -8.3 14 -9.8 89 89 S 15 24 30.27 1025 10 16.09344 0 0
9:15 am 09:15 Mostly Cloudy 17 -8.2 15 -9.6 90 90 SSE 13 20 30.27 1025 10 16.09344 0 0
9:35 am 09:35 Mostly Cloudy 18 -7.7 16 -9.1 90 90 S 15 24 30.24 1024 10 16.09344 0 0
9:55 am 09:55 Cloudy 19 -7 17 -8.5 89 89 S 17 28 30.24 1024 10 16.09344 0 0
10:15 am 10:15 Cloudy 21 -6.3 18 -8 88 88 S 17 28 30.24 1024 10 16.09344 0 0
10:35 am 10:35 Cloudy 22 -5.5 19 -7.5 86 86 S 16 26 30.18 1022 10 16.09344 0 0
10:55 am 10:55 Cloudy 23 -4.8 19 -7 85 85 S 16 26 30.18 1022 10 16.09344 0 0
11:15 am 11:15 Cloudy 24 -4.3 20 -6.7 84 84 S 16 26 30.18 1022 10 16.09344 0 0
11:35 am 11:35 Cloudy 26 -3.2 21 -6 81 81 S 17 28 30.18 1022 10 16.09344 0 0
11:55 am 11:55 Cloudy 28 -2 22 -5.3 78 78 S 13 20 30.12 1020 10 16.09344 0 0
12:15 pm 12:15 Mostly Cloudy 29 -1.5 23 -4.8 78 78 S 14 22 30.12 1020 10 16.09344 0 0
12:35 pm 12:35 Mostly Cloudy 30 -1 24 -4.5 77 77 S 12 19 30.12 1020 10 16.09344 0 0
12:55 pm 12:55 Mostly Cloudy 31 -0.7 24 -4.2 77 77 SSW 13 20 30.12 1020 10 16.09344 0 0
1:15 pm 13:15 Cloudy 32 -0.1 26 -3.6 78 78 SSW 12 19 30.06 1018 10 16.09344 0 0
1:35 pm 13:35 Partly Cloudy 32 0 26 -3.3 79 79 SSW 9 15 30.06 1018 10 16.09344 0 0
1:55 pm 13:55 Sunny 33 0.8 27 -2.8 77 77 SSW 6 9 30.06 1018 10 16.09344 0 0
2:15 pm 14:15 Sunny 34 1.1 28 -2.2 79 79 SSE 5 7 30.06 1018 10 16.09344 0 0
2:35 pm 14:35 Sunny 34 1.1 28 -2 80 80 Calm 30.06 1018 10 16.09344 0 0
2:55 pm 14:55 Sunny 37 3 30 -1.2 74 74 Calm 30.03 1017 10 16.09344 0 0
3:15 pm 15:15 Sunny 38 3.1 30 -1.2 74 74 Calm 30.03 1017 10 16.09344 0 0
3:35 pm 15:35 Sunny 38 3.5 30 -1.2 72 72 Calm 30.03 1017 10 16.09344 0 0
3:55 pm 15:55 Sunny 35 1.6 29 -1.5 80 80 Calm 30.06 1018 10 16.09344 0 0
4:15 pm 16:15 Sunny 33 0.7 29 -1.6 85 85 NNE 5 7 30.06 1018 10 16.09344 0 0
4:35 pm 16:35 Sunny 33 0.3 29 -1.5 88 88 N 8 13 30.06 1018 10 16.09344 0 0
4:55 pm 16:55 Sunny 33 0.4 29 -1.7 86 86 N 6 9 30.09 1019 10 16.09344 0 0
5:15 pm 17:15 Sunny 32 0 29 -1.5 90 90 N 6 9 30.06 1018 10 16.09344 0 0
5:35 pm 17:35 Clear 32 -0.1 29 -1.5 90 90 NNE 8 13 30.09 1019 10 16.09344 0 0
5:55 pm 17:55 Clear 32 0 29 -1.6 89 89 NNE 10 17 30.09 1019 10 16.09344 0 0
6:15 pm 18:15 Clear 32 0 29 -1.7 88 88 Calm 30.09 1019 10 16.09344 0 0
6:35 pm 18:35 Clear 31 -0.5 29 -1.7 92 92 Calm 30.15 1021 10 16.09344 0 0
6:55 pm 18:55 Clear 30 -1.1 28 -2.2 92 92 ENE 5 7 30.18 1022 10 16.09344 0 0
7:15 pm 19:15 Clear 31 -0.8 29 -1.8 93 93 NE 8 13 30.15 1021 10 16.09344 0 0
7:35 pm 19:35 Clear 32 -0.2 28 -2.3 86 86 ESE 6 9 30.18 1022 10 16.09344 0 0
7:55 pm 19:55 Clear 30 -1 28 -2.4 90 90 NE 5 7 30.18 1022 10 16.09344 0 0
8:15 pm 20:15 Clear 28 -2 27 -3 93 93 Calm 30.18 1022 10 16.09344 0 0
8:35 pm 20:35 Clear 28 -2.4 26 -3.4 93 93 ENE 3 6 30.18 1022 10 16.09344 0 0
8:55 pm 20:55 Clear 27 -3 26 -3.6 96 96 NNE 5 7 30.24 1024 10 16.09344 0 0
9:15 pm 21:15 Clear 26 -3.2 25 -3.7 96 96 NNE 3 6 30.24 1024 10 16.09344 0 0
9:35 pm 21:35 Clear 26 -3.5 25 -3.8 98 98 Calm 30.24 1024 10 16.09344 0 0
9:55 pm 21:55 Clear 24 -4.5 23 -4.8 98 98 NNW 3 6 30.24 1024 10 16.09344 0 0
10:15 pm 22:15 Clear 25 -4.1 24 -4.3 99 99 N 6 9 30.24 1024 10 16.09344 0 0
10:35 pm 22:35 Clear 27 -2.9 26 -3.2 98 98 N 5 7 30.27 1025 10 16.09344 0 0
10:55 pm 22:55 Clear 27 -2.6 26 -3.2 96 96 N 7 11 30.27 1025 10 16.09344 0 0
11:15 pm 23:15 Clear 25 -3.7 25 -4.1 97 97 N 8 13 30.27 1025 10 16.09344 0 0
11:35 pm 23:35 Clear 26 -3.4 25 -3.8 97 97 Calm 30.27 1025 10 16.09344 0 0
11:55 pm 23:55 Clear 25 -4 24 -4.3 98 98 NW 5 7 30.27 1025 10 16.09344 0 0

Powered by AerisWeather